User: anonymous   Login
Location: STAR School
(35.3054°N, 111.2976°W)
Time: 22:40:33
(UTC-07:00)
Language:

deb Explorer IX - Orbit

View from above orbital plane
View from above orbital plane
View from above satellite
View from above satellite

Ground track
Ground track

The orbit data is extracted from the following two-line orbital elements,

1    85U 61004C   19291.07682343 +.00000065 +00000-0 +34805-4 0  9994
2    85 038.7713 181.7196 0390228 318.0337 039.1112 14.19882919896480
Epoch (UTC): 18 October 2019 01:50:37
Eccentricity: 0.0390228
inclination: 38.7713°
perigee height: 544 km
apogee height: 1107 km
right ascension of ascending node: 181.7196°
argument of perigee: 318.0337°
revolutions per day: 14.19882919
mean anomaly at epoch: 39.1112°
orbit number at epoch: 89648

The dashed part of the orbit path shows where the satellite is in the earth's shadow,  

DLR